586  
ASUS46 KPDT 190025  
RWRPDT  
PENDLETON REGIONAL WEATHER ROUNDUP  
NATIONAL WEATHER SERVICE PENDLETON OREGON  
500 PM PDT SAT AUG 18 2018  
 
NOTE: FAIR INDICATES FEW OR NO CLOUDS BELOW 12,000 FEET WITH NO  
SIGNIFICANT WEATHER AND/OR S TO VISIBILITY
.  
 
# INDICATES UNOFFICIAL STATION AND DATA  
 
WAZ520-190110-  
EAST SLOPES OF WASHINGTON CASCADES  
 
CITY SKY/WX TMP DP RH WIND PRES REMARKS
 
#BULLFROG N/A 87 46 24 E3 N/A  
#CLE ELUM HS N/A 85 43 23 SE6 30.02  
#EASTON DOT N/A N/A N/A N/A N5 N/A  
#ELK HTS DOT N/A 86 85 97 N3 N/A  
#GLENWOOD N/A 90 48 24 S2 29.99S HX 87  
#NELSON 3SW N/A 83 48 30 CALM 30.17  
#NILE N/A 87 49 27 CALM 29.39S  
#TEANAWAY 4NE N/A 0 0 100 CALM N/A  
#TROUT LAKE 1E N/A 92 48 22 CALM 30.09 HX 89  

 
 
WAZ521-190110-  
SIMCOE HIGHLANDS  
 
CITY SKY/WX TMP DP RH WIND PRES REMARKS
 
#BICKLETON HS N/A 82 39 22 N5 29.81S  
#SATUS PASS DOT N/A 86 41 21 W12 N/A  
#CENTERVILLE 1SWN/A 88 46 23 SW1 29.95  
#GOLDENDALE 1NE N/A 92 6 4 CALM N/A HX 88  
#GOLDENDALE 4W N/A 92 32 12 CALM 30.08S HX 88  
#GOODNOE HILLS N/A 93 40 16 SE5 29.96S HX 89  
#LYLE 6NE N/A 84 46 27 CALM 30.01S  
#PITT 4SE N/A 85 42 22 SW3 30.03  

 
 
WAZ026-190110-  
KITTITAS VALLEY  
 
CITY SKY/WX TMP DP RH WIND PRES REMARKS
 
ELLENSBURG AP CLOUDY 89 49 25 VRB3 30.08 HAZE  
6HR MIN TEMP: 74; 6HR MAX TEMP: 90;  
 
#ELLENSBURG CWU N/A 87 51 29 SE3 29.94  
#ELLENSBURG 3NE N/A 84 57 40 CALM 28.16  
#ELLENSBURG 1E N/A 87 57 36 CALM 30.06  
#KITTITAS 3S N/A 86 60 42 CALM 29.97  
#MANASTASH RDG N/A 87 86 97 NE6 N/A  
#ROCKY CYN DOT N/A 86 56 36 E6 N/A  
#RYEGRASS DOT N/A 83 50 32 CALM N/A  
#THORP 6N N/A 84 51 32 CALM 30.00  

 
 
WAZ027-190110-  
YAKIMA VALLEY  
 
CITY SKY/WX TMP DP RH WIND PRES REMARKS
 
SUNNYSIDE AP SUNNY 87 60 40 CALM 30.02F  
YAKIMA AIRPORT SUNNY 90 47 23 SE5 30.04 HX 87  
6HR MIN TEMP: 78; 6HR MAX TEMP: 91;  
 
YAKIMA-VAGABOND N/A 91 45 20 S8 30.03 HX 87  
6HR MIN TEMP: 78; 6HR MAX TEMP: 91;  
 
#DONALD 2NE N/A 93 28 10 SW2 28.88S HX 88  
#GRANDVIEW N/A 87 46 24 CALM 30.00S  
#MABTON N/A 89 52 28 CALM 30.01S  
#MOXEE 2E N/A 53 N/A N/A CALM 30.06S  
#NACHES 2SW N/A 87 62 43 S1 30.09S  
#OUTLOOK DOT N/A 90 47 23 CALM 30.00S HX 87  
#PARKER DOT N/A 90 46 22 W3 30.03F HX 87  
#TERRACE HTS N/A 89 52 28 S2 29.95F  
#TOPPENISH N/A 89 53 29 E3 29.91S  
#I82 S UMTANUM RN/A 90 56 32 W2 N/A HX 88  
#UNION GAP DOT N/A 90 48 24 S1 30.05S HX 87  
#W YAKIMA N/A 88 51 28 SE2 29.98S  
#WILEY CITY 3W N/A 93 23 8 CALM 30.03S HX 88  
#ZILLAH DOT N/A 90 43 20 E3 N/A HX 86  

 
 
WAZ028-190110-  
LOWER COLUMBIA BASIN...WASHINGTON  
 
CITY SKY/WX TMP DP RH WIND PRES REMARKS
 
PASCO SUNNY 93 50 23 N6 30.02 HX 90  
6HR MIN TEMP: 79; 6HR MAX TEMP: 93;  
 
PROSSER AWOS N/A 90 46 22 E8 30.04F HX 87  
RICHLAND AWOS SUNNY 92 45 20 NE6 30.01F HX 88  
#BASIN CITY 5SW N/A 93 55 28 CALM 29.99 HX 91  
#BENTON CITY N/A 87 47 25 CALM 29.90  
#CONNELL 5N N/A 92 50 24 CALM 30.00 HX 89  
#CONNELL 5NW N/A 89 53 29 NW1 29.95F  
#ELTOPIA 6NW N/A 95 56 27 CALM 29.01 HX 93  
#KAHLOTUS N/A 89 46 23 CALM 29.98F  
#KENNEWICK 3S N/A 88 54 31 CALM 30.00  
#PROSSER DOT N/A 92 38 15 CALM 30.03S HX 88  
#SAGEMOOR 2W N/A 84 63 49 CALM 29.86S  
#TOUCHET 2S N/A 92 52 26 W2 29.96 HX 89  

 
 
WAZ029-190110-  
FOOTHILLS OF THE BLUES...WASHINGTON  
 
CITY SKY/WX TMP DP RH WIND PRES REMARKS
 
WALLA WALLA AP SUNNY 93 49 22 N8 30.04 HX 90  
6HR MIN TEMP: 78; 6HR MAX TEMP: 94;  
 
#DELANEY DOT N/A 92 37 15 NW6 30.06 HX 88  
#PLEASANT VIEW 1N/A 88 44 22 VRB2 30.02  
#PRESCOTT N/A 96 47 19 CALM 29.97 HX 92  
#WHITMAN COLLEGEN/A 91 48 23 CALM 30.01F HX 88  
#WAITSBURG 6SSE N/A 90 38 16 NW3 29.82S HX 86  
#WALLA WALLA 5E N/A 91 42 18 N6 N/A HX 87  
#WHITMAN MISSIONN/A 95 49 21 CALM 29.98S HX 92  

 
 
WAZ030-190110-  
BLUE MOUNTAINS...WASHINGTON  
 
CITY SKY/WX TMP DP RH WIND PRES REMARKS
 
#DIXIE 5SE N/A 81 40 23 N7 30.07  

 
 
ORZ009-041-WAZ024-190110-  
COLUMBIA RIVER GORGE  
 
CITY SKY/WX TMP DP RH WIND PRES REMARKS
 
HOOD RIVER AP SUNNY 86 46 25 W7 30.02S  
THE DALLES AP SUNNY 91 51 26 N13 29.98 HX 88  
6HR MIN TEMP: 76; 6HR MAX TEMP: 93;  
 
#ARLINGTON AIRPON/A 90 42 19 NE9 29.99S HX 86  
#CELILO DOT N/A 93 56 29 SW2 N/A HX 91  
#LYLE N/A 88 56 34 W12 29.98  
#MARYHILL N/A 92 36 14 N3 N/A HX 88  
#MURDOCK N/A 89 57 34 W8 29.92S  
#RUFUS DOT N/A 92 44 19 NE5 N/A HX 88  
#SMITHVILLE N/A 89 54 31 NW7 29.94S  
 

 
 
ORZ510-190110-  
NORTH CENTRAL OREGON  
 
CITY SKY/WX TMP DP RH WIND PRES REMARKS
 
#ANTELOPE N/A 88 39 18 N3 29.82  
#COW CYN RST AREN/A 87 26 11 N2 N/A  
#DUFUR N/A N/A N/A N/A N5 29.96  
#DUFUR 9E N/A 85 34 16 N3 30.04  
#GRASS VALLEY 1SN/A 88 35 15 N6 30.11  
#KENT DOT N/A 89 40 18 N3 N/A  
#MAUPIN SCHOOL N/A 94 34 12 N1 30.05S HX 89  
#SHANIKO 5WSW N/A N/A N/A N/A N8 N/A  
#TYGH VALLEY 2NEN/A 83 44 25 CALM 29.95S  
#WAPANITIA AIRPON/A 91 31 12 NE3 29.98 HX 87  
#WASCO 5NE N/A 90 43 20 CALM 29.98S HX 86  

 
 
ORZ511-190110-  
CENTRAL OREGON  
 
CITY SKY/WX TMP DP RH WIND PRES REMARKS
 
BEND AIRPORT SUNNY 91 25 9 N5 30.11S HX 87  
MADRAS AIRPORT SUNNY 90 25 10 N5 30.09F HX 86  
PRINEVILLE AP SUNNY 90 21 8 N7 30.11S HX 86  
REDMOND AIRPORT SUNNY 92 33 12 N10 30.10 HX 88  
6HR MIN TEMP: 78; 6HR MAX TEMP: 93;  
 
#ASHWOOD SCHOOL N/A 90 28 11 CALM 30.03F HX 86  
#BEND 1SW N/A 86 33 15 E2 N/A  
#BEND-AWBREY N/A 92 37 15 N3 29.95S HX 88  
#BEND-KIM LN N/A 90 34 14 N6 29.92S HX 86  
#CULVER N/A 88 33 14 NE1 29.68  
#CULVER 8W N/A 88 16 7 E2 30.09S  
#POWELL BUTTE N/A 88 25 10 NE3 30.06S  
#PRINEVILLE N/A 90 31 12 CALM 30.03F HX 86  
#PRINEVILLE 3N N/A 89 40 18 W6 29.94F  
#WARM SPRINGS N/A 93 33 12 CALM 29.83S HX 89  
 

 
 
 
ORZ509-190110-  
EAST SLOPES OF OREGON CASCADES  
 
CITY SKY/WX TMP DP RH WIND PRES REMARKS
 
SISTERS AWOS N/A 88 28 11 NE9 30.06  
#BLUE BOX PASS N/A 79 N/A N/A W3 N/A  
#CAMP SHERMAN N/A 90 36 15 SW2 30.03S HX 86  
#LA PINE 4NW N/A 87 44 22 CALM 30.01  
#LAVA BUTTE DOT N/A 88 37 16 N2 N/A  
#SISTERS ODOT N/A 90 24 9 SE2 N/A HX 86  
#SISTERS 3N N/A 87 30 13 CALM 30.09S  
#SUNRIVER N/A 87 34 15 E3 29.98S  
#TUMALO 3W N/A 87 30 13 N8 29.83  
#WANOGA BUTTE D N/A 76 28 17 E6 N/A  
 

 
 
ORZ044-190110-  
LOWER COLUMBIA BASIN...OREGON  
 
CITY SKY/WX TMP DP RH WIND PRES REMARKS
 
HERMISTON SUNNY 93 42 17 VRB6 30.00 HX 89  
6HR MIN TEMP: 77; 6HR MAX TEMP: 93;  
 
#BOARDMAN SCHOOLN/A 90 48 24 N1 29.98 HX 87  
#BOARDMAN 8SW N/A 0 N/A N/A CALM N/A  
#ECHO 8SW N/A 90 48 24 CALM 30.03S HX 87  
#I-84 EX 198 DOTN/A 90 57 33 N3 N/A HX 89  
#IONE SCHOOL N/A 91 37 15 N3 29.98S HX 87  
#UMATILLA N/A 94 48 21 CALM 29.90S HX 91  

 
 
ORZ507-190110-  
NORTHERN FOOTHILLS OF THE BLUES  
 
CITY SKY/WX TMP DP RH WIND PRES REMARKS
 
PENDLETON AIRPT SUNNY 92 32 12 NW7 30.05 HX 88  
6HR MIN TEMP: 79; 6HR MAX TEMP: 93;  
 
#ADAMS 3WNW N/A 90 38 16 N7 29.98 HX 86  
#ATHENA N/A 87 42 21 N2 30.02S  
#CAYUSE N/A 90 42 19 NW6 29.96 HX 86  
#HELIX SCHOOL N/A 86 40 20 NE9 30.00  
#HELIX 3N N/A 86 40 20 N12 30.09  
#M-FREEWATER 5SEN/A 88 50 27 W2 30.03  
#PENDLETON DNTN N/A 94 44 18 CALM 30.01S HX 90  
#PDT AQUATIC CTRN/A 90 41 18 S1 29.97S HX 86  
#PDT SUNRIDGE N/A 91 39 16 W3 30.04S HX 87  
#PENDLETON 6SE N/A 92 38 15 NW1 29.94S HX 88  
#PENDLETON 7NW N/A 87 53 31 CALM 30.70S  
#TUTUILLA N/A 87 38 18 N1 30.08  
#UMAPINE 2E N/A 91 47 22 W1 29.98F HX 88  
 

 
 
ORZ508-190110-  
SOUTHERN FOOTHILLS OF THE BLUES  
 
CITY SKY/WX TMP DP RH WIND PRES REMARKS
 
#AJAX N/A 88 31 13 CALM 30.23  
#HEPPNER EOC N/A 90 38 16 NW3 29.93 HX 86  
#HEPPNER 4NE N/A 83 36 19 E5 30.00  
#LEXINGTON 2SE N/A 90 41 18 CALM 30.00F HX 86  
#OLEX 4N N/A 88 42 20 NE9 30.02  
#RUGGS 5NE N/A 90 -9 2 N6 30.30S HX 86  
#RUGGS 2SW N/A 85 32 15 NW5 30.00F  
 

 
 
ORZ502-503-190110-  
BLUE MOUNTAINS  
 
CITY SKY/WX TMP DP RH WIND PRES REMARKS
 
MEACHAM SUNNY 82 30 15 VRB5 30.18  
6HR MIN TEMP: 75; 6HR MAX TEMP: 85;  
 
#BATTLE MTN DOT N/A 78 38 24 N6 N/A  
#GRANITE N/A 89 10 5 N1 29.91S  
#HARDMAN 10S N/A 81 32 17 N2 30.10F  
#HEPPNER 15SE N/A 78 36 22 N3 25.70S  
#LADD CYN SMT N/A 87 38 18 N6 N/A  
#LADD CREEK ODOTN/A 86 50 29 NE6 N/A  
#N POWDER DOT N/A 88 51 28 N5 N/A  
#PIKES PEAK N/A 79 39 24 N7 27.99  
#SUMMERVILLE 5NWN/A 88 44 22 N6 26.77S  
#TOLLGATE N/A 73 39 29 N1 30.26S  
#TROY SCHOOL N/A 92 45 20 CALM 29.80 HX 88  
#UKIAH N/A 84 36 18 S7 29.95  
#WESTON 4E N/A 82 41 23 CALM 29.97S  

 
 
ORZ505-190110-  
JOHN DAY BASIN  
 
CITY SKY/WX TMP DP RH WIND PRES REMARKS
 
JOHN DAY SUNNY 91 19 7 N5 30.12F HX 87  
#ANTELOPE 9ESE N/A 94 29 10 N3 N/A HX 89  
#DAYVILLE SCHOOLN/A 93 26 9 N6 30.01 HX 88  
#MITCHELL 8NW N/A 86 29 13 N2 29.97F  
#MONUMENT HS N/A 94 24 8 CALM 29.98 HX 89  

 
 
ORZ506-190110-  
OCHOCO AND JOHN DAY HIGHLANDS  
 
CITY SKY/WX TMP DP RH WIND PRES REMARKS
 
#HORSE RIDGE DO N/A 86 25 11 N7 N/A  
#PAULINA ODOT N/A 89 20 8 E7 N/A  
#PINE MTN OBS N/A 76 33 21 NW2 N/A  
#PRAIRIE CITY N/A 93 37 14 W1 30.25S HX 89  
#SENECA N/A 84 N/A N/A CALM N/A  
#SENECA 9NW N/A 86 29 13 N2 29.98  

 
 
ORZ049-190110-  
GRANDE RONDE VALLEY  
 
CITY SKY/WX TMP DP RH WIND PRES REMARKS
 
LA GRANDE SUNNY 91 33 13 N6 30.09 HX 87  
#COVE SCHOOL N/A 90 39 17 CALM 30.10S HX 86  
#COVE 6NW N/A 91 40 17 CALM 29.97S HX 87  
#ELGIN 3N N/A 88 41 19 CALM 30.06S  
#ELGIN 1E N/A 90 36 15 CALM N/A HX 86  
#IMBLER SCHOOL N/A 88 38 17 CALM 30.05  
#ISLAND CITY 4N N/A 87 52 30 CALM 30.06S  
#LADD CYN DOT N/A 90 50 26 N3 N/A HX 87  
#UNION 1S N/A 88 41 19 SW1 29.97S  

 
 
ORZ050-190110-  
WALLOWA COUNTY  
 
CITY SKY/WX TMP DP RH WIND PRES REMARKS
 
#ENTERPRISE HS N/A 83 46 27 CALM 29.87  
#IMNAHA SCHOOL N/A 90 46 22 NW2 30.04S HX 87  
#JOSEPH N/A 81 34 18 NE1 30.37S  
#JOSEPH 3N N/A 81 36 20 W2 30.19S  
#JOSEPH 3W N/A 81 45 28 CALM 30.05  
#LOSTINE N/A 85 37 18 CALM 29.80  
#LOSTINE 3SE N/A 87 37 17 E1 30.22S  
#MT HOWARD 8000 N/A 63 37 38 CALM 30.47  
#PROMISE 1S N/A 81 45 28 N2 30.09S  
#WALLOWA LAKE N/A 86 49 28 CALM 30.24S  
#WALLOWA SCHOOL N/A 91 37 15 CALM 30.06S HX 87  
 

 
 
CLICK HERE TO GO TO PREVIOUS BULLETINS.

The Nexlab OR Page
The Nexlab WA Page Main Text Page